Lake Clear, NY

6:05 AM EST on January 19, 2017 (GMT -0500)
Adirondack Regional

Weather History for KSLK - March, 2014

Change the Weather History Date:

Tuesday, March 18, 2014

  Actual Average Record
Temperature  
Mean Temperature 9 °F 25 °F  
Max Temperature 35 °F 37 °F 76 °F (2012)
Min Temperature -18 °F 13 °F -18 °F (2014)
Degree Days  
Heating Degree Days 56 40  
Month to date heating degree days 945 781  
Since 1 July heating degree days 7929 7486  
Cooling Degree Days 0 0  
Month to date cooling degree days 0 0  
Year to date cooling degree days 0 0  
Moisture  
Dew Point -7 °F    
Average Humidity 54    
Maximum Humidity 91    
Minimum Humidity 17    
Precipitation  
Precipitation 0.00 in 0.09 in 0.88 in (1989)
Month to date precipitation 0.56 1.16  
Year to date precipitation 3.18 4.90  
Sea Level Pressure  
Sea Level Pressure 30.24 in    
Wind  
Wind Speed 4 mph (ENE)    
Max Wind Speed 12 mph    
Max Gust Speed 16 mph    
Visibility 9 miles    
Events      
T = Trace of Precipitation, MM = Missing Value Source: NWS Daily Summary

Daily Weather History Graph

Daily Weather History Graph

Search for Another Location

Airport or City:

Trip Planner

Search our weather history database for the weather conditions in past years. The results will help you decide how hot, cold, wet, or windy it might be!

Date:

Astronomy

Mar. 18, 2014 Rise Set
Actual Time 7:03 AM EDT 7:06 PM EDT
Civil Twilight 6:34 AM EDT 7:35 PM EDT
Nautical Twilight 6:00 AM EDT 8:09 PM EDT
Astronomical Twilight 5:26 AM EDT 8:44 PM EDT
Moon 9:27 PM EDT (3/18) 7:46 AM EDT (3/18)
Length of Visible Light 13h 00m
Length of Day
12h 03m
Waning Gibbous, 96% of the Moon is Illuminated
Mar 18
Waning Gibbous
Mar 23
Last Quarter
Mar 30
New
Apr 7
First Quarter
Apr 15
Full

Hourly Weather History & Observations

Time (EDT) Temp. Windchill Dew Point Humidity Pressure Visibility Wind Dir Wind Speed Gust Speed Precip Events Conditions
12:51 AM -14.1 °F - -17.0 °F 87% 30.19 in 10.0 mi Calm Calm - N/A   Clear
1:51 AM -16.1 °F - -20.0 °F 82% 30.21 in 10.0 mi Calm Calm - N/A   Clear
2:51 AM -18.0 °F - -22.0 °F 82% 30.21 in 10.0 mi Calm Calm - N/A   Clear
3:51 AM -16.1 °F - -20.9 °F 79% 30.21 in 10.0 mi Calm Calm - N/A   Clear
4:51 AM -17.0 °F - -22.0 °F 78% 30.22 in 10.0 mi Calm Calm - N/A   Clear
5:51 AM -13.0 °F -22.7 °F -18.0 °F 78% 30.23 in 10.0 mi NNE 3.5 mph - N/A   Scattered Clouds
6:51 AM -7.1 °F - -11.0 °F 83% 30.24 in 10.0 mi Calm Calm - N/A   Overcast
7:51 AM -4.0 °F - -8.0 °F 83% 30.27 in 10.0 mi Calm Calm - N/A   Overcast
8:40 AM 1.0 °F - -2.9 °F 83% 30.15 in 1.0 mi Calm Calm - N/A   Overcast
8:49 AM 1.4 °F - -2.2 °F 85% 30.15 in 10.0 mi Calm Calm - N/A   Overcast
8:51 AM 3.0 °F - -0.9 °F 84% 30.28 in 10.0 mi Calm Calm - N/A   Overcast
9:51 AM 14.0 °F 3.9 °F -4.0 °F 45% 30.28 in 10.0 mi ENE 6.9 mph - N/A   Overcast
10:51 AM 21.0 °F 13.4 °F -2.0 °F 36% 30.27 in 4.0 mi ENE 5.8 mph - N/A   Haze
11:51 AM 25.0 °F 19.3 °F -4.0 °F 28% 30.26 in 10.0 mi NE 4.6 mph - N/A   Clear
12:51 PM 30.0 °F - -4.0 °F 23% 30.27 in 10.0 mi Calm Calm - N/A   Mostly Cloudy
1:51 PM 30.9 °F 27.5 °F -6.0 °F 20% 30.26 in 10.0 mi SSW 3.5 mph - 0.00 in   Partly Cloudy
2:51 PM 33.1 °F 24.9 °F 1.0 °F 26% 30.25 in 10.0 mi SW 10.4 mph - 0.00 in   Clear
3:51 PM 35.1 °F 29.3 °F -4.0 °F 19% 30.25 in 10.0 mi WSW 6.9 mph - N/A   Clear
4:51 PM 35.1 °F 27.9 °F -5.1 °F 18% 30.26 in 10.0 mi WSW 9.2 mph - N/A   Clear
5:51 PM 33.1 °F 24.9 °F -2.0 °F 22% 30.26 in 10.0 mi SSW 10.4 mph - N/A   Clear
6:51 PM 30.0 °F 24.1 °F 1.0 °F 29% 30.27 in 10.0 mi ENE 5.8 mph - N/A   Clear
7:51 PM 26.1 °F 16.2 °F 1.0 °F 34% 30.28 in 10.0 mi ENE 10.4 mph - N/A   Clear
8:51 PM 21.0 °F 13.4 °F 1.0 °F 42% 30.28 in 10.0 mi NE 5.8 mph - N/A   Clear
9:51 PM 18.0 °F 9.8 °F 1.0 °F 48% 30.27 in 10.0 mi ENE 5.8 mph - N/A   Clear
10:51 PM 16.0 °F 8.8 °F 1.0 °F 52% 30.26 in 10.0 mi NE 4.6 mph - N/A   Clear
11:51 PM 16.0 °F - -0.0 °F 49% 30.25 in 10.0 mi Calm Calm - N/A   Clear